Вернуться в каталог

DELTA 1 DEB

АктивенSSO
NORAD 3974·DEBRIS·🇺🇸 United States

Запущен Aug 16, 1968 с Vandenberg Space Force Base

Loading…

Ближайшие Пролёты (ближайшие 24 часа)

TLE

СвежийSource: Space-Track

Эпоха: Sep 13, 2026, 05:51 UTC

1  3974U 68069E   26256.24400295 -.00000033  00000-0  78451-4 0  9995
2  3974 101.8488 351.8239 0035355  22.2616   3.3547 12.53284764658289

Отслеживайте DELTA 1 DEB в реальном времени с AllMySat

Download on the App Store